BCO8PO EGKK-LPMA

Flight info

Callsign BCO8PO
Flight time N/A
Altitude 27000
Route NOVMA L620 SAM M195 LORKU DCT EBOMO DCT COQUE/N0425F290 DCT KORUL DCT AGADO DCT LAMDI DCT VABEM DCT LIDRO
Aircraft A337/H-SDE3GHIJ2J3J5M1RVWXY/LB2D1

Departure

Time 2026-04-14 15:53
Airport London Gatwick Airport (EGKK)

Arrival

Time N/A
Airport Cristiano Ronaldo International Airport (LPMA)
Time Latitude Longitude Altitude Speed Heading
2026-04-14 15:11 51.15514 -0.19579 208 ft 0 kts 79°
2026-04-14 15:28 51.15509 -0.19572 208 ft 2 kts 130°
2026-04-14 15:28 51.15502 -0.19573 218 ft 1 kts 177°
2026-04-14 15:28 51.15490 -0.19586 217 ft 6 kts 214°
2026-04-14 15:29 51.15454 -0.19607 220 ft 5 kts 191°
2026-04-14 15:29 51.15429 -0.19645 216 ft 8 kts 224°
2026-04-14 15:29 51.15399 -0.19659 217 ft 0 kts 176°
2026-04-14 15:44 51.15349 -0.19646 212 ft 14 kts 170°
2026-04-14 15:44 51.15226 -0.19608 211 ft 19 kts 171°
2026-04-14 15:44 51.15099 -0.19577 219 ft 18 kts 169°
2026-04-14 15:45 51.15034 -0.19451 216 ft 19 kts 82°
2026-04-14 15:45 51.15068 -0.19189 208 ft 29 kts 78°
2026-04-14 15:45 51.15110 -0.18879 217 ft 28 kts 78°
2026-04-14 15:45 51.15151 -0.18576 211 ft 28 kts 77°
2026-04-14 15:46 51.15189 -0.18281 217 ft 27 kts 80°
2026-04-14 15:46 51.15225 -0.17995 215 ft 26 kts 77°
2026-04-14 15:46 51.15249 -0.17815 217 ft 10 kts 76°
2026-04-14 15:46 51.15280 -0.17603 213 ft 29 kts 77°
2026-04-14 15:47 51.15308 -0.17332 215 ft 20 kts 81°
2026-04-14 15:47 51.15289 -0.17213 219 ft 8 kts 148°
2026-04-14 15:47 51.15202 -0.17078 217 ft 20 kts 101°
2026-04-14 15:47 51.15220 -0.16914 214 ft 0 kts 78°
2026-04-14 15:48 51.15221 -0.16906 213 ft 1 kts 78°
2026-04-14 15:48 51.15224 -0.16887 211 ft 2 kts 76°
2026-04-14 15:48 51.15229 -0.16862 214 ft 0 kts 70°
2026-04-14 15:49 51.15280 -0.16800 212 ft 19 kts 31°
2026-04-14 15:49 51.15309 -0.16707 214 ft 5 kts 113°
2026-04-14 15:49 51.15288 -0.16673 217 ft 0 kts 146°
2026-04-14 15:49 51.15282 -0.16667 217 ft 2 kts 152°
2026-04-14 15:50 51.15277 -0.16664 217 ft 0 kts 155°
2026-04-14 15:50 51.15276 -0.16664 217 ft 1 kts 155°
2026-04-14 15:50 51.15273 -0.16662 217 ft 3 kts 158°
2026-04-14 15:51 51.15178 -0.16638 206 ft 18 kts 192°
2026-04-14 15:51 51.15121 -0.16784 209 ft 16 kts 257°
2026-04-14 15:51 51.15099 -0.16938 214 ft 0 kts 258°
2026-04-14 15:51 51.15098 -0.16950 213 ft 5 kts 257°
2026-04-14 15:52 51.15073 -0.17126 214 ft 38 kts 257°
2026-04-14 15:52 51.14977 -0.17815 220 ft 89 kts 257°
2026-04-14 15:52 51.14807 -0.19032 215 ft 134 kts 258°
2026-04-14 15:52 51.14599 -0.20658 372 ft 159 kts 252°
2026-04-14 15:53 51.14394 -0.22464 820 ft 172 kts 254°
2026-04-14 15:53 51.14166 -0.24286 1554 ft 163 kts 250°
2026-04-14 15:53 51.13889 -0.26115 1921 ft 179 kts 249°
2026-04-14 15:53 51.13575 -0.28158 2184 ft 199 kts 251°
2026-04-14 15:54 51.12933 -0.32634 3108 ft 218 kts 252°
2026-04-14 15:54 51.12597 -0.35040 3634 ft 226 kts 253°
2026-04-14 15:54 51.12254 -0.37507 4317 ft 229 kts 253°
2026-04-14 15:55 51.11911 -0.39990 5087 ft 230 kts 253°
2026-04-14 15:55 51.11531 -0.42460 5812 ft 230 kts 248°
2026-04-14 15:55 51.10923 -0.44814 6462 ft 231 kts 242°
2026-04-14 15:55 51.10217 -0.47120 7087 ft 233 kts 241°
2026-04-14 15:56 51.09499 -0.49403 7657 ft 236 kts 241°
2026-04-14 15:56 51.08760 -0.51752 8249 ft 239 kts 241°
2026-04-14 15:56 51.08011 -0.54137 8837 ft 242 kts 241°
2026-04-14 15:56 51.07255 -0.56552 9388 ft 246 kts 241°
2026-04-14 15:57 51.06489 -0.58999 9977 ft 249 kts 241°
2026-04-14 15:57 51.05722 -0.61482 10494 ft 251 kts 244°
2026-04-14 15:57 51.05170 -0.64132 11053 ft 254 kts 254°
2026-04-14 15:57 51.04780 -0.66870 11623 ft 254 kts 256°
2026-04-14 15:58 51.04418 -0.69623 12157 ft 256 kts 257°
2026-04-14 15:58 51.04052 -0.72408 12665 ft 259 kts 257°
2026-04-14 15:58 51.03685 -0.75174 13197 ft 260 kts 258°
2026-04-14 15:58 51.03308 -0.78002 13682 ft 263 kts 258°
2026-04-14 15:59 51.02925 -0.80850 14186 ft 265 kts 258°
2026-04-14 15:59 51.02538 -0.83718 14623 ft 267 kts 258°
2026-04-14 15:59 51.02147 -0.86610 15044 ft 269 kts 258°
2026-04-14 15:59 51.01750 -0.89524 15493 ft 271 kts 258°
2026-04-14 16:00 51.01349 -0.92464 15909 ft 274 kts 259°
2026-04-14 16:00 51.00945 -0.95423 16331 ft 275 kts 259°
2026-04-14 16:00 51.00545 -0.98358 16774 ft 276 kts 259°
2026-04-14 16:00 51.00134 -1.01347 17204 ft 278 kts 259°
2026-04-14 16:01 50.99720 -1.04353 17652 ft 280 kts 259°
2026-04-14 16:01 50.99303 -1.07380 18053 ft 282 kts 260°
2026-04-14 16:01 50.98882 -1.10427 18471 ft 284 kts 260°
2026-04-14 16:01 50.98458 -1.13493 18814 ft 285 kts 260°
2026-04-14 16:02 50.98031 -1.16574 19157 ft 286 kts 260°
2026-04-14 16:02 50.97602 -1.19665 19509 ft 288 kts 260°
2026-04-14 16:02 50.97170 -1.22771 19859 ft 289 kts 260°
2026-04-14 16:02 50.96741 -1.25845 20186 ft 290 kts 260°
2026-04-14 16:03 50.96304 -1.28976 20529 ft 291 kts 260°
2026-04-14 16:03 50.95754 -1.32083 20858 ft 296 kts 250°
2026-04-14 16:03 50.94652 -1.34867 21159 ft 304 kts 231°
2026-04-14 16:03 50.93096 -1.37175 21486 ft 309 kts 224°
2026-04-14 16:04 50.91363 -1.39230 21822 ft 312 kts 219°
2026-04-14 16:04 50.89541 -1.41132 22129 ft 315 kts 217°
2026-04-14 16:04 50.87681 -1.42968 22495 ft 315 kts 217°
2026-04-14 16:04 50.85837 -1.44772 22786 ft 317 kts 217°
2026-04-14 16:05 50.83962 -1.46630 23057 ft 319 kts 217°
2026-04-14 16:05 50.82087 -1.48520 23353 ft 321 kts 218°
2026-04-14 16:05 50.80208 -1.50440 23657 ft 322 kts 218°
2026-04-14 16:05 50.78331 -1.52375 23893 ft 323 kts 218°
2026-04-14 16:06 50.76445 -1.54327 24112 ft 325 kts 219°
2026-04-14 16:06 50.74550 -1.56290 24356 ft 326 kts 219°
2026-04-14 16:06 50.72649 -1.58258 24590 ft 328 kts 219°
2026-04-14 16:06 50.70736 -1.60236 24818 ft 329 kts 219°
2026-04-14 16:07 50.68816 -1.62217 25047 ft 331 kts 219°
2026-04-14 16:07 50.66914 -1.64178 25275 ft 332 kts 219°
2026-04-14 16:07 50.64976 -1.66172 25499 ft 333 kts 219°
2026-04-14 16:07 50.63020 -1.68184 25599 ft 339 kts 219°
2026-04-14 16:08 50.61030 -1.70233 25681 ft 345 kts 219°
2026-04-14 16:08 50.59001 -1.72318 25764 ft 351 kts 219°
2026-04-14 16:08 50.56940 -1.74433 25859 ft 357 kts 219°
2026-04-14 16:08 50.54842 -1.76582 25945 ft 363 kts 218°
2026-04-14 16:09 50.53433 -1.78024 26005 ft 367 kts 218°
2026-04-14 16:09 50.51276 -1.80227 26086 ft 372 kts 218°
2026-04-14 16:09 50.48370 -1.83191 26191 ft 380 kts 218°
2026-04-14 16:09 50.46139 -1.85463 26262 ft 385 kts 218°
2026-04-14 16:10 50.43879 -1.87762 26361 ft 389 kts 218°
2026-04-14 16:10 50.41595 -1.90082 26443 ft 394 kts 218°
2026-04-14 16:10 50.39282 -1.92430 26507 ft 398 kts 218°
2026-04-14 16:10 50.36941 -1.94802 26576 ft 403 kts 217°
2026-04-14 16:11 50.35380 -1.96384 26614 ft 406 kts 217°
2026-04-14 16:11 50.32996 -1.98795 26694 ft 409 kts 217°
2026-04-14 16:11 50.29817 -2.02006 26895 ft 412 kts 217°
2026-04-14 16:11 50.27408 -2.04436 27035 ft 413 kts 217°
2026-04-14 16:12 50.25001 -2.06855 27072 ft 408 kts 217°
2026-04-14 16:12 50.22622 -2.09209 27075 ft 402 kts 217°
2026-04-14 16:12 50.20256 -2.11523 27073 ft 401 kts 217°
2026-04-14 16:12 50.18689 -2.13047 27072 ft 401 kts 217°
2026-04-14 16:13 50.16325 -2.15343 27066 ft 401 kts 217°
2026-04-14 16:13 50.13955 -2.17643 27072 ft 401 kts 217°
2026-04-14 16:13 50.11582 -2.19945 27070 ft 402 kts 217°
2026-04-14 16:13 50.09209 -2.22245 27069 ft 402 kts 217°
2026-04-14 16:14 50.06063 -2.25293 27072 ft 402 kts 217°
2026-04-14 16:14 50.04460 -2.26844 27072 ft 402 kts 217°
2026-04-14 16:14 50.02088 -2.29139 27073 ft 401 kts 216°
2026-04-14 16:14 49.99752 -2.31395 27074 ft 399 kts 216°
2026-04-14 16:15 49.97398 -2.33666 27072 ft 398 kts 216°
2026-04-14 16:15 49.95047 -2.35931 27072 ft 397 kts 216°
2026-04-14 16:15 49.92700 -2.38192 27071 ft 398 kts 216°
2026-04-14 16:15 49.90348 -2.40457 27072 ft 398 kts 216°
2026-04-14 16:16 49.87994 -2.42723 27069 ft 398 kts 216°
2026-04-14 16:16 49.85639 -2.44987 27070 ft 398 kts 216°
2026-04-14 16:16 49.83285 -2.47247 27073 ft 398 kts 216°
2026-04-14 16:16 49.80932 -2.49504 27072 ft 398 kts 216°
2026-04-14 16:17 49.78606 -2.51731 27067 ft 398 kts 216°
2026-04-14 16:17 49.76250 -2.53985 27069 ft 398 kts 216°
2026-04-14 16:17 49.73893 -2.56237 27068 ft 398 kts 216°
2026-04-14 16:17 49.71534 -2.58489 27052 ft 398 kts 216°
2026-04-14 16:18 49.69175 -2.60738 27069 ft 399 kts 216°
2026-04-14 16:18 49.66814 -2.62986 27071 ft 399 kts 216°
2026-04-14 16:18 49.64448 -2.65236 27071 ft 399 kts 216°
2026-04-14 16:18 49.62084 -2.67482 27072 ft 399 kts 216°
2026-04-14 16:19 49.59718 -2.69728 27067 ft 399 kts 216°
2026-04-14 16:19 49.57389 -2.71934 27070 ft 397 kts 216°
2026-04-14 16:19 49.55038 -2.74158 27073 ft 396 kts 216°
2026-04-14 16:19 49.52693 -2.76375 27072 ft 395 kts 216°
2026-04-14 16:20 49.50351 -2.78588 27078 ft 395 kts 216°
2026-04-14 16:20 49.48006 -2.80801 27064 ft 395 kts 216°
2026-04-14 16:20 49.45661 -2.83012 27067 ft 396 kts 216°
2026-04-14 16:20 49.43310 -2.85226 27065 ft 396 kts 216°
2026-04-14 16:21 49.40993 -2.87405 27069 ft 396 kts 216°
2026-04-14 16:21 49.38642 -2.89613 27067 ft 396 kts 216°
2026-04-14 16:21 49.36288 -2.91822 27064 ft 396 kts 216°
2026-04-14 16:21 49.33938 -2.94024 27065 ft 396 kts 216°
2026-04-14 16:22 49.31585 -2.96226 27065 ft 396 kts 215°
2026-04-14 16:22 49.29232 -2.98427 27067 ft 396 kts 215°
2026-04-14 16:22 49.26877 -3.00626 27065 ft 396 kts 215°
2026-04-14 16:22 49.24523 -3.02822 27063 ft 397 kts 215°
2026-04-14 16:23 49.22166 -3.05024 27076 ft 398 kts 216°
2026-04-14 16:23 49.19812 -3.07249 27075 ft 398 kts 216°
2026-04-14 16:23 49.17493 -3.09455 27066 ft 398 kts 216°
2026-04-14 16:23 49.15148 -3.11690 27061 ft 396 kts 216°
2026-04-14 16:24 49.12812 -3.13912 27060 ft 395 kts 216°
2026-04-14 16:24 49.10484 -3.16123 27077 ft 394 kts 216°
2026-04-14 16:24 49.08154 -3.18331 27053 ft 394 kts 216°
2026-04-14 16:24 49.05823 -3.20536 27053 ft 394 kts 216°
2026-04-14 16:25 49.03491 -3.22738 27062 ft 394 kts 216°
2026-04-14 16:25 49.01183 -3.24914 27064 ft 396 kts 216°
2026-04-14 16:25 48.98838 -3.27123 27073 ft 397 kts 216°
2026-04-14 16:25 48.96487 -3.29334 27076 ft 397 kts 216°
2026-04-14 16:26 48.94135 -3.31543 27073 ft 398 kts 216°
2026-04-14 16:26 48.91782 -3.33752 27056 ft 397 kts 216°
2026-04-14 16:26 48.89427 -3.35958 27075 ft 397 kts 216°
2026-04-14 16:26 48.87075 -3.38161 27078 ft 397 kts 216°
2026-04-14 16:27 48.84722 -3.40360 27080 ft 397 kts 216°
2026-04-14 16:27 48.82367 -3.42561 27079 ft 397 kts 216°
2026-04-14 16:27 48.80044 -3.44729 27063 ft 397 kts 216°
2026-04-14 16:27 48.77691 -3.46923 27078 ft 397 kts 216°
2026-04-14 16:28 48.75335 -3.49117 27081 ft 397 kts 216°
2026-04-14 16:28 48.72982 -3.51305 27060 ft 396 kts 216°
2026-04-14 16:28 48.70637 -3.53482 27064 ft 395 kts 216°
2026-04-14 16:28 48.68296 -3.55654 27064 ft 395 kts 216°
2026-04-14 16:29 48.65956 -3.57822 27078 ft 394 kts 216°
2026-04-14 16:29 48.63646 -3.59962 27078 ft 394 kts 216°
2026-04-14 16:29 48.61307 -3.62127 27076 ft 394 kts 216°
2026-04-14 16:29 48.58966 -3.64291 27057 ft 394 kts 216°
2026-04-14 16:30 48.56624 -3.66453 27073 ft 395 kts 216°
2026-04-14 16:30 48.54276 -3.68619 27074 ft 396 kts 216°
2026-04-14 16:30 48.51925 -3.70785 27073 ft 396 kts 216°
2026-04-14 16:30 48.49573 -3.72948 27077 ft 396 kts 215°
2026-04-14 16:31 48.47220 -3.75110 27075 ft 396 kts 215°
2026-04-14 16:31 48.44899 -3.77239 27075 ft 396 kts 215°
2026-04-14 16:31 48.42549 -3.79394 27074 ft 396 kts 215°
2026-04-14 16:31 48.40195 -3.81549 27078 ft 396 kts 215°
2026-04-14 16:32 48.37841 -3.83703 27077 ft 396 kts 215°
2026-04-14 16:32 48.35489 -3.85853 27074 ft 396 kts 215°
2026-04-14 16:32 48.33133 -3.88004 27079 ft 396 kts 215°
2026-04-14 16:32 48.30778 -3.90151 27079 ft 395 kts 215°
2026-04-14 16:33 48.28428 -3.92292 27076 ft 395 kts 215°
2026-04-14 16:33 48.26079 -3.94429 27084 ft 395 kts 215°
2026-04-14 16:33 48.23763 -3.96533 27088 ft 395 kts 215°
2026-04-14 16:33 48.21415 -3.98666 27088 ft 395 kts 215°
2026-04-14 16:34 48.19066 -4.00797 27091 ft 395 kts 215°
2026-04-14 16:34 48.16718 -4.02925 27093 ft 395 kts 215°
2026-04-14 16:34 48.14366 -4.05053 27088 ft 395 kts 215°
2026-04-14 16:34 48.12015 -4.07178 27096 ft 395 kts 215°
2026-04-14 16:35 48.09660 -4.09306 27097 ft 396 kts 215°
2026-04-14 16:35 48.07303 -4.11432 27101 ft 396 kts 215°
2026-04-14 16:35 48.04947 -4.13555 27107 ft 396 kts 215°
2026-04-14 16:35 48.02620 -4.15650 27104 ft 396 kts 215°
2026-04-14 16:36 48.00261 -4.17772 27099 ft 396 kts 215°
2026-04-14 16:36 47.97902 -4.19890 27100 ft 396 kts 215°
2026-04-14 16:36 47.95543 -4.22006 27108 ft 396 kts 215°
2026-04-14 16:36 47.93183 -4.24122 27092 ft 396 kts 215°
2026-04-14 16:37 47.90822 -4.26234 27102 ft 396 kts 215°
2026-04-14 16:37 47.88466 -4.28340 27102 ft 395 kts 215°
2026-04-14 16:37 47.86108 -4.30447 27098 ft 395 kts 215°
2026-04-14 16:37 47.83751 -4.32551 27098 ft 395 kts 215°
2026-04-14 16:38 47.81424 -4.34626 27096 ft 395 kts 215°
2026-04-14 16:38 47.79069 -4.36724 27088 ft 395 kts 215°
2026-04-14 16:38 47.76710 -4.38822 27085 ft 395 kts 215°
2026-04-14 16:38 47.74349 -4.40921 27086 ft 395 kts 215°
2026-04-14 16:39 47.71993 -4.43012 27085 ft 395 kts 215°
2026-04-14 16:39 47.69632 -4.45105 27087 ft 395 kts 215°
2026-04-14 16:39 47.67268 -4.47200 27088 ft 396 kts 215°
2026-04-14 16:39 47.64903 -4.49293 27088 ft 396 kts 215°
2026-04-14 16:40 47.62565 -4.51360 27090 ft 396 kts 215°
2026-04-14 16:40 47.60201 -4.53447 27088 ft 396 kts 215°
2026-04-14 16:40 47.57830 -4.55538 27089 ft 396 kts 215°
2026-04-14 16:40 47.55461 -4.57625 27089 ft 396 kts 219°
2026-04-14 16:41 47.53256 -4.59950 26993 ft 386 kts 232°
2026-04-14 16:41 47.51522 -4.62638 28103 ft 323 kts 262°
2026-04-14 16:41 47.51818 -4.65535 27758 ft 251 kts 271°
2026-04-14 16:41 47.52543 -4.67047 22434 ft 129 kts 295°